Location: Buchdorf
(48.7842°N, 10.8275°E)
Time: 02:02:07
(UTC+00:00)

N. Korean satellite - Pass Details

Date: 09 March 2021
Orbit: 453 x 499 km, 97.2° (Epoch: 11 April)

Event Time Altitude Azimuth Distance (km) Brightness Sun altitude
Rises 04:15:56 0° 20° (NNE) 2,543 10.7 -15.0°
Reaches altitude 10° 04:18:07 10° 30° (NNE) 1,667 9.8 -14.7°
Maximum altitude 04:21:25 34° 97° (E) 813 8.4 -14.1°
Drops below altitude 10° 04:24:45 10° 164° (SSE) 1,677 9.4 -13.6°
Sets 04:26:57 0° 174° (S) 2,560 10.2 -13.2°
